Regional Weather Roundup
Issued by NWS Midland/Odessa, TX

Skip options and go directly to product.
Home | Oldest Version | Previous Version | Current Version | All | Text Only | Save Text | Print | Product List | Glossary On

Skip product version selection by date and time.   
725
ASUS44 KMAF 290210
RWRMAF
MIDLAND AREA WEATHER ROUNDUP
NATIONAL WEATHER SERVICE MIDLAND TX
900 PM CDT TUE JUL 28 2015

...IN SOUTHWEST TEXAS AND SOUTHEAST NEW MEXICO...

CITY           SKY/WX    TMP DP  RH WIND       PRES   REMARKS
ALPINE         PTCLDY    84  59  42 SE7       30.11R
ANDREWS        FAIR      92  57  29 SE10G17   29.96R
ARTESIA        MOCLDY    84  59  42 NE13      30.00R
BIG SPRING     CLEAR     90  55  30 E8        29.95R
CARLSBAD       PTCLDY    86  59  39 NE17      29.96R THUNDER
DRYDEN           N/A     94  60  32 SE8       29.90R
FORT STOCKTON  CLEAR     90  60  36 SE15G25   29.94R
GUAD PASS      CLOUDY    85  54  34 SW3       30.12R
HOBBS          PTCLDY    91  52  25 NW12G17   30.01R
MARFA          PTCLDY    81  61  50 SE8       30.10R
MIDLAND AIRPK  CLEAR     95  52  23 SE13      29.94R
MIDLAND INTL   CLEAR     94  56  27 SE16      29.93R
ODESSA         CLEAR     94  56  27 SE16      29.95R
PECOS          PTCLDY    96  59  29 SE15      29.88R
PRESIDIO       FAIR      93  60  32 SW10      29.90R
SEMINOLE       CLEAR     90  54  29 SE6       29.98R
SNYDER         CLEAR     90  63  40 E9        29.95R
WINK           PTCLDY    96  56  26 SE12      29.89R
$$
...OTHER STATIONS IN TEXAS...

CITY           SKY/WX    TMP DP  RH WIND       PRES   REMARKS
ABILENE        CLEAR     90  64  42 E8        29.93R
AMARILLO       CLOUDY    76  59  55 NW20G33   30.06R THUNDER
AUSTIN         CLEAR     89  70  53 S15       29.90S
BROWNSVILLE    CLEAR     84  77  79 SE13      29.93R
CORPUS CHRISTI PTCLDY    84  76  76 SE16      29.92R
DALLAS FTW     CLEAR     92  61  35 SE8       29.90R
DEL RIO        CLEAR     94  63  35 SE8       29.84R
EL PASO        MOCLDY    92  52  25 N14       29.98R
HOUSTON INT    PTCLDY    87  74  64 S7        29.95R
LUBBOCK        PTCLDY    88  60  38 SE10      30.00R
SAN ANGELO     CLEAR     94  59  31 SE8       29.89R
SAN ANTONIO    PTCLDY    90  68  48 SE17      29.92R
WACO           CLEAR     91  64  40 SE10      29.90S
WICHITA FALLS  NOT AVBL
$$
...OTHER LOCATIONS IN NEW MEXICO...

CITY           SKY/WX    TMP DP  RH WIND       PRES   REMARKS
ALAMAGORDO     CLOUDY    73  63  68 NE17      30.04F
ALBUQUERQUE    LGT RAIN  84  48  28 S15       30.13R
CANNON AFB     LGT RAIN  67  65  94 N20G28    30.13S
CLOVIS         CLOUDY    66  63  88 N20       30.16R
HOLLOMAN AFB   LGT RAIN  77  57  50 NE20G33   30.01F
ROSWELL        MOCLDY    81  61  50 N12       30.01R
RUIDOSO          N/A    N/A N/A N/A MISG        N/A
SANTA FE       CLOUDY    73  50  44 SE22G31   30.22R
TRUTH OR CONSE CLOUDY    73  60  63 N10G18    30.10R
TUCUMCARI      LGT RAIN  70  66  87 S3        30.19R
$$

USA.gov is the U.S. government's official web portal to all federal, state and local government web resources and services.